Time,TemperatureF,DewpointF,PressureIn,WindDirection,WindDirectionDegrees,WindSpeedMPH,WindSpeedGustMPH,Humidity,HourlyPrecipIn,Conditions,Clouds,dailyrainin,SoftwareType,DateUTC
2013-04-23 00:04:00,38.7,37.9,30.33,NNE,31,19.0,24.0,97,0.00,,,0.00,meteohub,2013-04-22 11:04:00,
2013-04-23 00:09:00,38.7,37.9,30.34,NE,46,17.0,26.0,97,0.00,,,0.00,meteohub,2013-04-22 11:09:00,
2013-04-23 00:14:00,38.7,37.9,30.34,ENE,57,25.0,26.0,97,0.00,,,0.00,meteohub,2013-04-22 11:14:00,
2013-04-23 00:19:00,38.7,37.9,30.34,NE,48,21.0,27.0,97,0.00,,,0.00,meteohub,2013-04-22 11:19:00,
2013-04-23 00:24:00,38.7,38.1,30.34,NE,46,23.0,27.0,98,0.00,,,0.00,meteohub,2013-04-22 11:24:00,
2013-04-23 00:29:00,38.5,37.9,30.35,NE,44,16.0,27.0,98,0.00,,,0.00,meteohub,2013-04-22 11:29:00,
2013-04-23 00:34:00,38.5,37.9,30.35,NE,46,13.0,24.0,98,0.00,,,0.00,meteohub,2013-04-22 11:34:00,
2013-04-23 00:39:00,38.5,37.9,30.35,NE,37,16.0,24.0,98,0.00,,,0.00,meteohub,2013-04-22 11:39:00,
2013-04-23 00:44:00,38.3,37.8,30.35,NE,46,21.0,25.0,98,0.00,,,0.00,meteohub,2013-04-22 11:44:00,
2013-04-23 00:49:00,38.1,37.6,30.35,NE,36,20.0,25.0,98,0.00,,,0.00,meteohub,2013-04-22 11:49:00,
2013-04-23 00:54:00,38.1,37.6,30.35,NE,50,17.0,25.0,98,0.00,,,0.00,meteohub,2013-04-22 11:54:00,
2013-04-23 00:59:00,38.1,37.6,30.35,NE,52,21.0,24.0,98,0.00,,,0.00,meteohub,2013-04-22 11:59:00,
2013-04-23 01:04:00,38.1,37.6,30.35,NE,53,21.0,24.0,98,0.00,,,0.00,meteohub,2013-04-22 12:04:00,
2013-04-23 01:09:00,38.1,37.6,30.35,NE,40,20.0,24.0,98,0.00,,,0.00,meteohub,2013-04-22 12:09:00,
2013-04-23 01:14:00,38.1,37.9,30.35,NE,44,21.0,24.0,99,0.00,,,0.00,meteohub,2013-04-22 12:14:00,
2013-04-23 01:19:00,37.9,37.8,30.35,NE,44,21.0,23.0,99,0.00,,,0.00,meteohub,2013-04-22 12:19:00,
2013-04-23 01:24:00,37.9,37.8,30.35,NE,56,18.0,23.0,99,0.00,,,0.00,meteohub,2013-04-22 12:24:00,
2013-04-23 01:30:00,37.9,37.8,30.35,NE,49,19.0,23.0,99,0.00,,,0.00,meteohub,2013-04-22 12:30:00,
2013-04-23 01:35:00,37.9,37.8,30.35,NE,51,17.0,23.0,99,0.00,,,0.00,meteohub,2013-04-22 12:35:00,
2013-04-23 01:40:00,37.9,37.8,30.35,NE,44,18.0,23.0,99,0.00,,,0.00,meteohub,2013-04-22 12:40:00,
2013-04-23 01:45:00,37.9,37.8,30.35,NNE,32,23.0,24.0,99,0.00,,,0.00,meteohub,2013-04-22 12:45:00,
2013-04-23 01:50:00,37.8,37.6,30.36,NE,41,22.0,24.0,99,0.00,,,0.00,meteohub,2013-04-22 12:50:00,
2013-04-23 01:55:00,37.8,37.6,30.35,NE,39,20.0,24.0,99,0.00,,,0.00,meteohub,2013-04-22 12:55:00,
2013-04-23 02:00:00,37.8,37.6,30.36,NE,46,20.0,24.0,99,0.00,,,0.00,meteohub,2013-04-22 13:00:00,
2013-04-23 02:05:00,37.8,37.6,30.36,NE,41,21.0,24.0,99,0.00,,,0.00,meteohub,2013-04-22 13:05:00,
2013-04-23 02:10:00,37.8,37.6,30.36,NNE,33,21.0,24.0,99,0.00,,,0.00,meteohub,2013-04-22 13:10:00,
2013-04-23 02:15:00,37.8,37.6,30.36,NE,45,15.0,24.0,99,0.00,,,0.00,meteohub,2013-04-22 13:15:00,
2013-04-23 02:20:00,37.6,37.4,30.35,NE,43,17.0,26.0,99,0.00,,,0.00,meteohub,2013-04-22 13:20:00,
2013-04-23 02:25:00,37.6,37.4,30.36,NE,44,20.0,26.0,99,0.00,,,0.00,meteohub,2013-04-22 13:25:00,
2013-04-23 02:30:00,37.6,37.4,30.36,NE,54,14.0,26.0,99,0.00,,,0.00,meteohub,2013-04-22 13:30:00,
2013-04-23 02:35:00,37.6,37.4,30.37,NE,54,23.0,24.0,99,0.00,,,0.00,meteohub,2013-04-22 13:35:00,
2013-04-23 02:40:00,37.4,37.2,30.37,NE,49,22.0,24.0,99,0.00,,,0.00,meteohub,2013-04-22 13:40:00,
2013-04-23 02:45:00,37.6,37.4,30.37,NE,42,15.0,23.0,99,0.00,,,0.00,meteohub,2013-04-22 13:45:00,
2013-04-23 02:50:00,37.6,37.4,30.37,NE,39,12.0,23.0,99,0.00,,,0.00,meteohub,2013-04-22 13:50:00,
2013-04-23 02:55:00,37.6,37.4,30.37,NE,49,20.0,23.0,99,0.00,,,0.00,meteohub,2013-04-22 13:55:00,
2013-04-23 03:00:00,37.4,37.2,30.38,NE,48,20.0,23.0,99,0.00,,,0.00,meteohub,2013-04-22 14:00:00,
2013-04-23 03:05:00,37.6,37.4,30.38,NE,54,14.0,23.0,99,0.00,,,0.00,meteohub,2013-04-22 14:05:00,
2013-04-23 03:11:00,37.4,37.2,30.37,NE,52,19.0,22.0,99,0.00,,,0.00,meteohub,2013-04-22 14:11:00,
2013-04-23 03:16:00,37.4,37.2,30.38,NE,48,17.0,24.0,99,0.00,,,0.00,meteohub,2013-04-22 14:16:00,
2013-04-23 03:21:00,37.4,37.2,30.38,NE,46,19.0,24.0,99,0.00,,,0.00,meteohub,2013-04-22 14:21:00,
2013-04-23 03:26:00,37.4,37.2,30.38,NE,49,25.0,25.0,99,0.00,,,0.00,meteohub,2013-04-22 14:26:00,
2013-04-23 03:31:00,37.6,37.4,30.38,NE,55,20.0,27.0,99,0.00,,,0.00,meteohub,2013-04-22 14:31:00,
2013-04-23 03:36:00,37.6,37.4,30.39,NE,49,19.0,27.0,99,0.00,,,0.00,meteohub,2013-04-22 14:36:00,
2013-04-23 03:41:00,37.6,37.4,30.38,NE,49,21.0,27.0,99,0.00,,,0.00,meteohub,2013-04-22 14:41:00,
2013-04-23 03:46:00,37.6,37.4,30.40,NE,43,17.0,26.0,99,0.00,,,0.00,meteohub,2013-04-22 14:46:00,
2013-04-23 03:51:00,37.6,37.4,30.39,NE,44,22.0,26.0,99,0.00,,,0.00,meteohub,2013-04-22 14:51:00,
2013-04-23 03:56:00,37.6,37.4,30.39,NE,50,23.0,26.0,99,0.00,,,0.00,meteohub,2013-04-22 14:56:00,
2013-04-23 04:01:00,37.6,37.4,30.40,NE,55,22.0,25.0,99,0.00,,,0.00,meteohub,2013-04-22 15:01:00,
2013-04-23 04:06:00,37.8,37.6,30.40,NE,50,15.0,25.0,99,0.00,,,0.00,meteohub,2013-04-22 15:06:00,
2013-04-23 04:11:00,37.9,37.8,30.40,NE,50,16.0,24.0,99,0.00,,,0.00,meteohub,2013-04-22 15:11:00,
2013-04-23 04:16:00,37.9,37.8,30.40,NE,46,14.0,22.0,99,0.00,,,0.00,meteohub,2013-04-22 15:16:00,
2013-04-23 04:21:00,37.9,37.8,30.41,NNE,25,15.0,20.0,99,0.00,,,0.00,meteohub,2013-04-22 15:21:00,
2013-04-23 04:26:00,37.9,37.8,30.41,ENE,61,13.0,20.0,99,0.00,,,0.00,meteohub,2013-04-22 15:26:00,
2013-04-23 04:31:00,38.1,37.9,30.41,NE,56,17.0,20.0,99,0.00,,,0.00,meteohub,2013-04-22 15:31:00,
2013-04-23 04:37:00,38.1,37.9,30.41,ENE,58,15.0,20.0,99,0.00,,,0.00,meteohub,2013-04-22 15:37:00,
2013-04-23 04:42:00,38.1,37.9,30.41,NE,49,13.0,20.0,99,0.00,,,0.00,meteohub,2013-04-22 15:42:00,
2013-04-23 04:47:00,38.5,38.3,30.41,NE,53,16.0,20.0,99,0.00,,,0.00,meteohub,2013-04-22 15:47:00,
2013-04-23 04:52:00,38.3,38.1,30.41,ENE,60,12.0,20.0,99,0.00,,,0.00,meteohub,2013-04-22 15:52:00,
2013-04-23 04:57:00,38.7,38.5,30.41,NE,54,16.0,17.0,99,0.00,,,0.00,meteohub,2013-04-22 15:57:00,
2013-04-23 05:02:00,38.7,38.5,30.41,NE,44,15.0,17.0,99,0.00,,,0.00,meteohub,2013-04-22 16:02:00,
2013-04-23 05:07:00,38.7,38.5,30.41,NE,49,9.0,18.0,99,0.00,,,0.00,meteohub,2013-04-22 16:07:00,
2013-04-23 05:12:00,38.7,38.5,30.41,NE,55,14.0,18.0,99,0.00,,,0.00,meteohub,2013-04-22 16:12:00,
2013-04-23 05:17:00,38.7,38.5,30.41,NE,51,14.0,18.0,99,0.00,,,0.00,meteohub,2013-04-22 16:17:00,
2013-04-23 05:22:00,38.8,38.7,30.40,NE,51,15.0,16.0,99,0.00,,,0.00,meteohub,2013-04-22 16:22:00,
2013-04-23 05:27:00,39.0,38.8,30.40,NE,49,16.0,17.0,99,0.00,,,0.00,meteohub,2013-04-22 16:27:00,
2013-04-23 05:32:00,39.2,39.0,30.40,NE,45,13.0,18.0,99,0.00,,,0.00,meteohub,2013-04-22 16:32:00,
2013-04-23 05:37:00,39.4,39.2,30.40,NE,52,13.0,18.0,99,0.00,,,0.00,meteohub,2013-04-22 16:37:00,
2013-04-23 05:42:00,39.6,39.4,30.40,NE,41,14.0,18.0,99,0.00,,,0.00,meteohub,2013-04-22 16:42:00,
2013-04-23 05:47:00,39.9,39.7,30.40,ENE,58,11.0,17.0,99,0.00,,,0.00,meteohub,2013-04-22 16:47:00,
2013-04-23 05:52:00,40.3,40.1,30.41,NE,56,14.0,17.0,99,0.00,,,0.00,meteohub,2013-04-22 16:52:00,
2013-04-23 05:57:00,41.2,41.0,30.41,NE,44,6.0,17.0,99,0.00,,,0.00,meteohub,2013-04-22 16:57:00,
2013-04-23 06:02:00,41.4,41.2,30.41,NNE,23,10.0,16.0,99,0.00,,,0.00,meteohub,2013-04-22 17:02:00,
2013-04-23 06:07:00,41.9,41.7,30.42,NE,44,15.0,16.0,99,0.00,,,0.00,meteohub,2013-04-22 17:07:00,
2013-04-23 06:12:00,41.4,41.2,30.42,NE,51,13.0,17.0,99,0.00,,,0.00,meteohub,2013-04-22 17:12:00,
2013-04-23 06:17:00,41.7,41.5,30.42,NE,52,10.0,17.0,99,0.00,,,0.00,meteohub,2013-04-22 17:17:00,
2013-04-23 06:23:00,41.5,41.4,30.42,NE,44,10.0,17.0,99,0.00,,,0.00,meteohub,2013-04-22 17:23:00,
2013-04-23 06:28:00,41.5,41.4,30.42,NE,41,15.0,18.0,99,0.00,,,0.00,meteohub,2013-04-22 17:28:00,
2013-04-23 06:33:00,42.1,41.9,30.41,NE,45,14.0,18.0,99,0.00,,,0.00,meteohub,2013-04-22 17:33:00,
2013-04-23 06:38:00,42.3,42.1,30.42,NE,53,10.0,18.0,99,0.00,,,0.00,meteohub,2013-04-22 17:38:00,
2013-04-23 06:43:00,42.4,42.3,30.42,NE,49,12.0,17.0,99,0.00,,,0.00,meteohub,2013-04-22 17:43:00,
2013-04-23 06:48:00,43.0,42.8,30.42,NNE,23,12.0,17.0,99,0.00,,,0.00,meteohub,2013-04-22 17:48:00,
2013-04-23 06:53:00,42.8,42.6,30.42,NE,37,15.0,18.0,99,0.00,,,0.00,meteohub,2013-04-22 17:53:00,
2013-04-23 06:58:00,43.2,43.0,30.42,North,354,13.0,18.0,99,0.00,,,0.00,meteohub,2013-04-22 17:58:00,
2013-04-23 07:03:00,43.3,42.8,30.42,North,7,12.0,18.0,98,0.00,,,0.00,meteohub,2013-04-22 18:03:00,
2013-04-23 07:08:00,43.3,42.8,30.42,NE,49,14.0,20.0,98,0.00,,,0.00,meteohub,2013-04-22 18:08:00,
2013-04-23 07:13:00,43.9,43.3,30.42,NNE,15,12.0,20.0,98,0.00,,,0.00,meteohub,2013-04-22 18:13:00,
2013-04-23 07:18:00,44.2,43.5,30.42,NE,47,11.0,18.0,97,0.00,,,0.00,meteohub,2013-04-22 18:18:00,
2013-04-23 07:23:00,44.6,43.5,30.42,NNE,33,11.0,18.0,96,0.00,,,0.00,meteohub,2013-04-22 18:23:00,
2013-04-23 07:28:00,45.1,44.1,30.42,NE,39,14.0,17.0,96,0.00,,,0.00,meteohub,2013-04-22 18:28:00,
2013-04-23 07:33:00,46.0,44.1,30.42,NE,36,15.0,17.0,93,0.00,,,0.00,meteohub,2013-04-22 18:33:00,
2013-04-23 07:38:00,46.2,43.5,30.42,NE,44,13.0,18.0,90,0.00,,,0.00,meteohub,2013-04-22 18:38:00,
2013-04-23 07:43:00,46.8,43.7,30.42,NE,39,9.0,18.0,89,0.00,,,0.00,meteohub,2013-04-22 18:43:00,
2013-04-23 07:48:00,47.3,43.7,30.42,NE,34,15.0,18.0,87,0.00,,,0.00,meteohub,2013-04-22 18:48:00,
2013-04-23 07:53:00,47.7,43.3,30.42,NNE,25,17.0,19.0,85,0.00,,,0.00,meteohub,2013-04-22 18:53:00,
2013-04-23 07:59:00,47.8,43.5,30.42,NNE,27,8.0,19.0,85,0.00,,,0.00,meteohub,2013-04-22 18:59:00,
2013-04-23 08:04:00,48.4,43.2,30.41,NE,37,17.0,19.0,82,0.00,,,0.00,meteohub,2013-04-22 19:04:00,
2013-04-23 08:09:00,48.6,42.3,30.41,NE,46,11.0,19.0,79,0.00,,,0.00,meteohub,2013-04-22 19:09:00,
2013-04-23 08:14:00,48.9,43.0,30.41,North,11,16.0,21.0,80,0.00,,,0.00,meteohub,2013-04-22 19:14:00,
2013-04-23 08:19:00,49.5,42.8,30.42,North,357,9.0,21.0,78,0.00,,,0.00,meteohub,2013-04-22 19:19:00,
2013-04-23 08:24:00,49.8,43.2,30.41,NNE,13,6.0,21.0,78,0.00,,,0.00,meteohub,2013-04-22 19:24:00,
2013-04-23 08:29:00,50.2,41.5,30.41,NE,39,15.0,20.0,72,0.00,,,0.00,meteohub,2013-04-22 19:29:00,
2013-04-23 08:34:00,50.2,41.5,30.41,North,349,8.0,19.0,72,0.00,,,0.00,meteohub,2013-04-22 19:34:00,
2013-04-23 08:39:00,50.5,41.5,30.41,NNW,330,11.0,18.0,71,0.00,,,0.00,meteohub,2013-04-22 19:39:00,
2013-04-23 08:44:00,50.9,41.2,30.40,NW,321,6.0,19.0,69,0.00,,,0.00,meteohub,2013-04-22 19:44:00,
2013-04-23 08:49:00,51.3,40.6,30.41,North,11,16.0,21.0,67,0.00,,,0.00,meteohub,2013-04-22 19:49:00,
2013-04-23 08:54:00,51.4,39.7,30.40,NE,51,16.0,21.0,64,0.00,,,0.00,meteohub,2013-04-22 19:54:00,
2013-04-23 08:59:00,51.8,40.5,30.40,NNE,18,14.0,22.0,65,0.00,,,0.00,meteohub,2013-04-22 19:59:00,
2013-04-23 09:04:00,52.2,40.3,30.39,NE,41,16.0,22.0,64,0.00,,,0.00,meteohub,2013-04-22 20:04:00,
2013-04-23 09:09:00,52.2,39.9,30.40,NNE,16,11.0,22.0,63,0.00,,,0.00,meteohub,2013-04-22 20:09:00,
2013-04-23 09:14:00,52.5,40.6,30.39,NE,53,12.0,22.0,64,0.00,,,0.00,meteohub,2013-04-22 20:14:00,
2013-04-23 09:19:00,52.5,39.4,30.39,NNE,15,11.0,22.0,61,0.00,,,0.00,meteohub,2013-04-22 20:19:00,
2013-04-23 09:24:00,52.9,40.6,30.39,NNW,339,12.0,22.0,63,0.00,,,0.00,meteohub,2013-04-22 20:24:00,
2013-04-23 09:29:00,53.1,40.5,30.38,NNE,23,13.0,23.0,62,0.00,,,0.00,meteohub,2013-04-22 20:29:00,
2013-04-23 09:34:00,53.6,40.5,30.38,NE,51,7.0,23.0,61,0.00,,,0.00,meteohub,2013-04-22 20:34:00,
2013-04-23 09:40:00,54.1,40.6,30.38,North,8,15.0,23.0,60,0.00,,,0.00,meteohub,2013-04-22 20:40:00,
2013-04-23 09:45:00,54.0,40.8,30.38,North,3,17.0,22.0,61,0.00,,,0.00,meteohub,2013-04-22 20:45:00,
2013-04-23 09:50:00,54.0,40.8,30.38,NNE,25,18.0,21.0,61,0.00,,,0.00,meteohub,2013-04-22 20:50:00,
2013-04-23 09:55:00,54.3,41.2,30.38,NNE,14,13.0,22.0,61,0.00,,,0.00,meteohub,2013-04-22 20:55:00,
2013-04-23 10:00:00,54.5,40.1,30.38,NE,39,18.0,22.0,58,0.00,,,0.00,meteohub,2013-04-22 21:00:00,
2013-04-23 10:05:00,54.7,40.3,30.38,NNE,14,21.0,21.0,58,0.00,,,0.00,meteohub,2013-04-22 21:05:00,
2013-04-23 10:10:00,54.9,40.3,30.37,North,4,19.0,26.0,58,0.00,,,0.00,meteohub,2013-04-22 21:10:00,
2013-04-23 10:15:00,54.9,39.9,30.38,NNE,25,10.0,26.0,57,0.00,,,0.00,meteohub,2013-04-22 21:15:00,
2013-04-23 10:20:00,55.2,39.4,30.37,NNW,348,13.0,26.0,55,0.00,,,0.00,meteohub,2013-04-22 21:20:00,
2013-04-23 10:25:00,55.2,38.3,30.37,NNE,23,22.0,26.0,53,0.00,,,0.00,meteohub,2013-04-22 21:25:00,
2013-04-23 10:30:00,55.2,39.4,30.37,NNW,344,17.0,25.0,55,0.00,,,0.00,meteohub,2013-04-22 21:30:00,
2013-04-23 10:35:00,55.8,38.8,30.37,NE,44,18.0,25.0,53,0.00,,,0.00,meteohub,2013-04-22 21:35:00,
2013-04-23 10:40:00,55.8,37.9,30.37,NNE,15,15.0,24.0,51,0.00,,,0.00,meteohub,2013-04-22 21:40:00,
2013-04-23 10:45:00,55.9,38.1,30.37,North,3,14.0,24.0,51,0.00,,,0.00,meteohub,2013-04-22 21:45:00,
2013-04-23 10:50:00,56.1,38.3,30.37,NNE,32,17.0,24.0,51,0.00,,,0.00,meteohub,2013-04-22 21:50:00,
2013-04-23 10:55:00,56.5,39.6,30.37,NE,37,11.0,24.0,53,0.00,,,0.00,meteohub,2013-04-22 21:55:00,
2013-04-23 11:00:00,56.7,39.2,30.37,NNW,340,10.0,22.0,52,0.00,,,0.00,meteohub,2013-04-22 22:00:00,
2013-04-23 11:05:00,56.5,37.6,30.37,NNE,13,19.0,25.0,49,0.00,,,0.00,meteohub,2013-04-22 22:05:00,
2013-04-23 11:10:00,56.7,37.8,30.36,ESE,118,8.0,25.0,49,0.00,,,0.00,meteohub,2013-04-22 22:10:00,
2013-04-23 11:15:00,56.8,37.9,30.36,North,1,17.0,25.0,49,0.00,,,0.00,meteohub,2013-04-22 22:15:00,
2013-04-23 11:20:00,57.0,38.1,30.36,North,7,16.0,23.0,49,0.00,,,0.00,meteohub,2013-04-22 22:20:00,
2013-04-23 11:26:00,56.8,36.3,30.36,North,356,16.0,26.0,46,0.00,,,0.00,meteohub,2013-04-22 22:26:00,
2013-04-23 11:31:00,56.8,36.3,30.35,North,354,12.0,26.0,46,0.00,,,0.00,meteohub,2013-04-22 22:31:00,
2013-04-23 11:36:00,56.8,35.8,30.36,NE,53,14.0,27.0,45,0.00,,,0.00,meteohub,2013-04-22 22:36:00,
2013-04-23 11:41:00,57.0,36.5,30.36,NNW,338,12.0,27.0,46,0.00,,,0.00,meteohub,2013-04-22 22:41:00,
2013-04-23 11:46:00,57.2,36.7,30.36,NNE,25,17.0,27.0,46,0.00,,,0.00,meteohub,2013-04-22 22:46:00,
2013-04-23 11:51:00,57.4,36.7,30.36,NNE,25,9.0,26.0,46,0.00,,,0.00,meteohub,2013-04-22 22:51:00,
2013-04-23 11:56:00,57.6,36.3,30.36,NNE,19,12.0,26.0,45,0.00,,,0.00,meteohub,2013-04-22 22:56:00,
2013-04-23 12:01:00,57.7,36.0,30.35,NNW,337,15.0,24.0,44,0.00,,,0.00,meteohub,2013-04-22 23:01:00,
2013-04-23 12:06:00,57.7,34.9,30.35,North,6,17.0,24.0,42,0.00,,,0.00,meteohub,2013-04-22 23:06:00,
2013-04-23 12:11:00,57.9,34.9,30.35,North,6,17.0,28.0,42,0.00,,,0.00,meteohub,2013-04-22 23:11:00,
2013-04-23 12:16:00,58.3,35.2,30.35,North,352,19.0,28.0,42,0.00,,,0.00,meteohub,2013-04-22 23:16:00,
2013-04-23 12:21:00,58.5,35.4,30.35,NNW,345,18.0,28.0,42,0.00,,,0.00,meteohub,2013-04-22 23:21:00,
2013-04-23 12:26:00,58.3,35.2,30.35,NNE,12,7.0,26.0,42,0.00,,,0.00,meteohub,2013-04-22 23:26:00,
2013-04-23 12:31:00,58.3,34.0,30.35,North,356,19.0,26.0,40,0.00,,,0.00,meteohub,2013-04-22 23:31:00,
2013-04-23 12:36:00,58.5,34.9,30.35,North,11,20.0,24.0,41,0.00,,,0.00,meteohub,2013-04-22 23:36:00,
2013-04-23 12:42:00,58.5,36.0,30.34,NNW,336,17.0,26.0,43,0.00,,,0.00,meteohub,2013-04-22 23:42:00,
2013-04-23 12:47:00,58.5,34.2,30.34,NNW,344,24.0,26.0,40,0.00,,,0.00,meteohub,2013-04-22 23:47:00,
2013-04-23 12:52:00,58.5,34.2,30.35,NNW,342,15.0,26.0,40,0.00,,,0.00,meteohub,2013-04-22 23:52:00,
2013-04-23 12:57:00,58.8,35.8,30.35,North,352,12.0,24.0,42,0.00,,,0.00,meteohub,2013-04-22 23:57:00,
2013-04-23 13:02:00,58.6,34.3,30.34,North,2,11.0,24.0,40,0.00,,,0.00,meteohub,2013-04-23 00:02:00,
2013-04-23 13:07:00,58.5,34.9,30.34,ENE,65,18.0,26.0,41,0.00,,,0.00,meteohub,2013-04-23 00:07:00,
2013-04-23 13:12:00,58.5,34.9,30.34,NNE,31,15.0,26.0,41,0.00,,,0.00,meteohub,2013-04-23 00:12:00,
2013-04-23 13:17:00,58.3,34.7,30.34,NNE,15,21.0,25.0,41,0.00,,,0.00,meteohub,2013-04-23 00:17:00,
2013-04-23 13:22:00,58.1,35.1,30.33,North,5,18.0,25.0,42,0.00,,,0.00,meteohub,2013-04-23 00:22:00,
2013-04-23 13:27:00,57.9,33.8,30.34,NNW,333,15.0,27.0,40,0.00,,,0.00,meteohub,2013-04-23 00:27:00,
2013-04-23 13:32:00,57.9,34.9,30.34,NE,39,14.0,27.0,42,0.00,,,0.00,meteohub,2013-04-23 00:32:00,
2013-04-23 13:37:00,57.9,34.9,30.34,North,1,20.0,27.0,42,0.00,,,0.00,meteohub,2013-04-23 00:37:00,
2013-04-23 13:42:00,57.7,34.9,30.33,North,9,20.0,26.0,42,0.00,,,0.00,meteohub,2013-04-23 00:42:00,
2013-04-23 13:48:00,57.6,35.2,30.34,North,10,14.0,29.0,43,0.00,,,0.00,meteohub,2013-04-23 00:48:00,
2013-04-23 13:53:00,57.6,35.2,30.33,NNE,31,13.0,29.0,43,0.00,,,0.00,meteohub,2013-04-23 00:53:00,
2013-04-23 13:58:00,57.6,36.9,30.34,NNW,342,9.0,29.0,46,0.00,,,0.00,meteohub,2013-04-23 00:58:00,
2013-04-23 14:03:00,57.4,35.1,30.33,NE,34,14.0,26.0,43,0.00,,,0.00,meteohub,2013-04-23 01:03:00,
2013-04-23 14:09:00,57.4,34.5,30.33,NE,38,19.0,25.0,42,0.00,,,0.00,meteohub,2013-04-23 01:09:00,
2013-04-23 14:14:00,57.0,34.2,30.33,NNE,25,14.0,27.0,42,0.00,,,0.00,meteohub,2013-04-23 01:14:00,
2013-04-23 14:19:00,57.0,34.2,30.32,North,355,8.0,28.0,42,0.00,,,0.00,meteohub,2013-04-23 01:19:00,
2013-04-23 14:24:00,56.8,32.7,30.32,North,0,14.0,30.0,40,0.00,,,0.00,meteohub,2013-04-23 01:24:00,
2013-04-23 14:29:00,56.8,33.4,30.33,North,11,24.0,30.0,41,0.00,,,0.00,meteohub,2013-04-23 01:29:00,
2013-04-23 14:34:00,56.8,33.4,30.33,NE,34,18.0,31.0,41,0.00,,,0.00,meteohub,2013-04-23 01:34:00,
2013-04-23 14:39:00,56.7,32.0,30.33,North,5,13.0,31.0,39,0.00,,,0.00,meteohub,2013-04-23 01:39:00,
2013-04-23 14:44:00,56.7,33.3,30.33,North,7,17.0,31.0,41,0.00,,,0.00,meteohub,2013-04-23 01:44:00,
2013-04-23 14:49:00,56.3,33.4,30.33,NE,43,12.0,28.0,42,0.00,,,0.00,meteohub,2013-04-23 01:49:00,
2013-04-23 14:54:00,56.1,32.7,30.33,NE,34,19.0,28.0,41,0.00,,,0.00,meteohub,2013-04-23 01:54:00,
2013-04-23 15:00:00,56.1,32.2,30.33,NE,51,15.0,30.0,40,0.00,,,0.00,meteohub,2013-04-23 02:00:00,
2013-04-23 15:05:00,55.9,32.5,30.33,NE,42,22.0,30.0,41,0.00,,,0.00,meteohub,2013-04-23 02:05:00,
2013-04-23 15:10:00,55.9,32.5,30.32,North,11,24.0,30.0,41,0.00,,,0.00,meteohub,2013-04-23 02:10:00,
2013-04-23 15:15:00,55.8,32.4,30.32,NE,38,24.0,27.0,41,0.00,,,0.00,meteohub,2013-04-23 02:15:00,
2013-04-23 15:20:00,55.6,32.2,30.32,ENE,60,16.0,27.0,41,0.00,,,0.00,meteohub,2013-04-23 02:20:00,
2013-04-23 15:25:00,55.2,32.5,30.32,NNE,23,15.0,28.0,42,0.00,,,0.00,meteohub,2013-04-23 02:25:00,
2013-04-23 15:30:00,55.0,32.4,30.32,NNE,20,17.0,28.0,42,0.00,,,0.00,meteohub,2013-04-23 02:30:00,
2013-04-23 15:35:00,54.9,32.2,30.32,NNE,27,25.0,28.0,42,0.00,,,0.00,meteohub,2013-04-23 02:35:00,
2013-04-23 15:40:00,54.7,32.0,30.32,North,11,23.0,28.0,42,0.00,,,0.00,meteohub,2013-04-23 02:40:00,
2013-04-23 15:45:00,54.3,31.6,30.32,NE,51,25.0,28.0,42,0.00,,,0.00,meteohub,2013-04-23 02:45:00,
2013-04-23 15:50:00,54.3,31.6,30.32,NE,35,13.0,29.0,42,0.00,,,0.00,meteohub,2013-04-23 02:50:00,
2013-04-23 15:55:00,54.1,30.9,30.33,North,8,21.0,30.0,41,0.00,,,0.00,meteohub,2013-04-23 02:55:00,
2013-04-23 16:00:00,54.0,31.5,30.34,ENE,61,23.0,30.0,42,0.00,,,0.00,meteohub,2013-04-23 03:00:00,
2013-04-23 16:05:00,53.8,30.6,30.33,NE,46,20.0,30.0,41,0.00,,,0.00,meteohub,2013-04-23 03:05:00,
2013-04-23 16:10:00,53.6,31.1,30.32,NE,47,18.0,31.0,42,0.00,,,0.00,meteohub,2013-04-23 03:10:00,
2013-04-23 16:16:00,53.4,30.4,30.33,NE,54,20.0,31.0,41,0.00,,,0.00,meteohub,2013-04-23 03:16:00,
2013-04-23 16:21:00,53.2,30.7,30.34,NE,50,13.0,31.0,42,0.00,,,0.00,meteohub,2013-04-23 03:21:00,
2013-04-23 16:26:00,53.1,30.6,30.33,NE,51,22.0,31.0,42,0.00,,,0.00,meteohub,2013-04-23 03:26:00,
2013-04-23 16:31:00,52.9,30.4,30.33,NE,50,23.0,31.0,42,0.00,,,0.00,meteohub,2013-04-23 03:31:00,
2013-04-23 16:36:00,52.9,30.9,30.34,NNE,32,19.0,30.0,43,0.00,,,0.00,meteohub,2013-04-23 03:36:00,
2013-04-23 16:41:00,52.5,30.7,30.34,NE,37,24.0,30.0,43,0.00,,,0.00,meteohub,2013-04-23 03:41:00,
2013-04-23 16:46:00,52.3,31.1,30.34,NE,47,21.0,30.0,44,0.00,,,0.00,meteohub,2013-04-23 03:46:00,
2013-04-23 16:51:00,52.5,31.3,30.34,NE,51,15.0,27.0,44,0.00,,,0.00,meteohub,2013-04-23 03:51:00,
2013-04-23 16:56:00,52.3,30.6,30.35,ENE,60,21.0,27.0,43,0.00,,,0.00,meteohub,2013-04-23 03:56:00,
2013-04-23 17:01:00,52.5,30.7,30.35,NE,53,19.0,27.0,43,0.00,,,0.00,meteohub,2013-04-23 04:01:00,
2013-04-23 17:02:00,52.5,30.0,30.35,ENE,58,22.0,27.0,42,0.00,,,0.00,meteohub,2013-04-23 04:02:00,
2013-04-23 17:04:00,52.9,29.3,30.35,NE,52,23.0,27.0,40,0.00,,,0.00,meteohub,2013-04-23 04:04:00,
2013-04-23 17:08:00,53.1,30.0,30.35,NE,49,19.0,26.0,41,0.00,,,0.00,meteohub,2013-04-23 04:08:00,
2013-04-23 17:13:00,53.1,28.8,30.35,ENE,57,22.0,27.0,39,0.00,,,0.00,meteohub,2013-04-23 04:13:00,
2013-04-23 17:18:00,53.2,28.2,30.35,NE,48,22.0,27.0,38,0.00,,,0.00,meteohub,2013-04-23 04:18:00,
2013-04-23 17:23:00,53.2,28.2,30.36,NE,55,21.0,26.0,38,0.00,,,0.00,meteohub,2013-04-23 04:23:00,
2013-04-23 17:28:00,53.2,28.2,30.36,NE,55,17.0,26.0,38,0.00,,,0.00,meteohub,2013-04-23 04:28:00,
2013-04-23 17:33:00,53.1,28.8,30.36,ENE,59,20.0,26.0,39,0.00,,,0.00,meteohub,2013-04-23 04:33:00,
2013-04-23 17:38:00,52.7,28.4,30.36,NE,53,18.0,26.0,39,0.00,,,0.00,meteohub,2013-04-23 04:38:00,
2013-04-23 17:43:00,52.5,27.7,30.36,ENE,58,12.0,24.0,38,0.00,,,0.00,meteohub,2013-04-23 04:43:00,
2013-04-23 17:48:00,52.9,26.6,30.36,ENE,59,19.0,24.0,36,0.00,,,0.00,meteohub,2013-04-23 04:48:00,
2013-04-23 17:53:00,52.7,27.1,30.37,ENE,67,18.0,24.0,37,0.00,,,0.00,meteohub,2013-04-23 04:53:00,
2013-04-23 17:58:00,52.5,26.2,30.37,ENE,60,21.0,24.0,36,0.00,,,0.00,meteohub,2013-04-23 04:58:00,
2013-04-23 18:03:00,52.7,26.4,30.37,ENE,59,18.0,23.0,36,0.00,,,0.00,meteohub,2013-04-23 05:03:00,
2013-04-23 18:08:00,52.5,26.2,30.37,ENE,61,20.0,23.0,36,0.00,,,0.00,meteohub,2013-04-23 05:08:00,
2013-04-23 18:14:00,52.3,26.2,30.37,ENE,69,16.0,22.0,36,0.00,,,0.00,meteohub,2013-04-23 05:14:00,
2013-04-23 18:19:00,52.2,26.1,30.37,NE,56,18.0,22.0,36,0.00,,,0.00,meteohub,2013-04-23 05:19:00,
2013-04-23 18:24:00,52.2,24.6,30.37,ENE,63,19.0,21.0,34,0.00,,,0.00,meteohub,2013-04-23 05:24:00,
2013-04-23 18:29:00,52.7,25.9,30.37,ENE,67,20.0,21.0,35,0.00,,,0.00,meteohub,2013-04-23 05:29:00,
2013-04-23 18:34:00,52.9,25.3,30.37,East,90,14.0,21.0,34,0.00,,,0.00,meteohub,2013-04-23 05:34:00,
2013-04-23 18:39:00,52.9,25.3,30.37,ENE,70,17.0,21.0,34,0.00,,,0.00,meteohub,2013-04-23 05:39:00,
2013-04-23 18:44:00,52.7,25.2,30.37,East,88,16.0,21.0,34,0.00,,,0.00,meteohub,2013-04-23 05:44:00,
2013-04-23 18:49:00,52.7,25.2,30.37,East,84,17.0,20.0,34,0.00,,,0.00,meteohub,2013-04-23 05:49:00,
2013-04-23 18:54:00,52.9,25.3,30.37,East,79,15.0,19.0,34,0.00,,,0.00,meteohub,2013-04-23 05:54:00,
2013-04-23 18:59:00,52.9,25.3,30.37,ENE,75,12.0,19.0,34,0.00,,,0.00,meteohub,2013-04-23 05:59:00,
2013-04-23 19:04:00,52.7,24.4,30.37,East,83,15.0,19.0,33,0.00,,,0.00,meteohub,2013-04-23 06:04:00,
2013-04-23 19:09:00,52.5,24.3,30.37,East,82,15.0,17.0,33,0.00,,,0.00,meteohub,2013-04-23 06:09:00,
2013-04-23 19:14:00,52.5,24.3,30.37,ENE,71,12.0,17.0,33,0.00,,,0.00,meteohub,2013-04-23 06:14:00,
2013-04-23 19:19:00,52.5,24.3,30.37,ENE,78,12.0,16.0,33,0.00,,,0.00,meteohub,2013-04-23 06:19:00,
2013-04-23 19:25:00,52.2,24.6,30.37,ENE,65,10.0,17.0,34,0.00,,,0.00,meteohub,2013-04-23 06:25:00,
2013-04-23 19:30:00,52.0,24.4,30.36,ENE,69,16.0,17.0,34,0.00,,,0.00,meteohub,2013-04-23 06:30:00,
2013-04-23 19:35:00,52.0,24.4,30.36,ENE,68,15.0,17.0,34,0.00,,,0.00,meteohub,2013-04-23 06:35:00,
2013-04-23 19:40:00,51.6,25.5,30.36,East,81,13.0,16.0,36,0.00,,,0.00,meteohub,2013-04-23 06:40:00,
2013-04-23 19:45:00,51.4,25.3,30.36,ENE,74,13.0,16.0,36,0.00,,,0.00,meteohub,2013-04-23 06:45:00,
2013-04-23 19:50:00,51.4,24.6,30.36,East,89,10.0,15.0,35,0.00,,,0.00,meteohub,2013-04-23 06:50:00,
2013-04-23 19:55:00,51.4,24.1,30.36,ENE,75,12.0,14.0,34,0.00,,,0.00,meteohub,2013-04-23 06:55:00,
2013-04-23 20:00:00,51.6,24.1,30.36,East,84,12.0,14.0,34,0.00,,,0.00,meteohub,2013-04-23 07:00:00,
2013-04-23 20:05:00,51.3,25.2,30.36,ENE,77,11.0,14.0,36,0.00,,,0.00,meteohub,2013-04-23 07:05:00,
2013-04-23 20:10:00,51.1,25.0,30.36,ENE,77,11.0,14.0,36,0.00,,,0.00,meteohub,2013-04-23 07:10:00,
2013-04-23 20:15:00,50.9,24.8,30.36,ENE,70,12.0,13.0,36,0.00,,,0.00,meteohub,2013-04-23 07:15:00,
2013-04-23 20:20:00,50.7,24.8,30.36,ENE,60,12.0,13.0,36,0.00,,,0.00,meteohub,2013-04-23 07:20:00,
2013-04-23 20:25:00,50.7,25.3,30.36,ENE,61,10.0,14.0,37,0.00,,,0.00,meteohub,2013-04-23 07:25:00,
2013-04-23 20:30:00,50.4,25.7,30.36,ENE,63,12.0,14.0,38,0.00,,,0.00,meteohub,2013-04-23 07:30:00,
2013-04-23 20:35:00,49.8,25.2,30.36,ENE,70,10.0,14.0,38,0.00,,,0.00,meteohub,2013-04-23 07:35:00,
2013-04-23 20:40:00,49.6,25.7,30.36,ENE,64,10.0,13.0,39,0.00,,,0.00,meteohub,2013-04-23 07:40:00,
2013-04-23 20:45:00,49.6,25.0,30.36,ENE,64,11.0,12.0,38,0.00,,,0.00,meteohub,2013-04-23 07:45:00,
2013-04-23 20:51:00,49.3,25.3,30.36,ENE,75,11.0,14.0,39,0.00,,,0.00,meteohub,2013-04-23 07:51:00,
2013-04-23 20:56:00,49.3,25.3,30.37,ENE,65,13.0,14.0,39,0.00,,,0.00,meteohub,2013-04-23 07:56:00,
2013-04-23 21:01:00,49.5,24.3,30.37,ENE,58,15.0,15.0,37,0.00,,,0.00,meteohub,2013-04-23 08:01:00,
2013-04-23 21:06:00,49.6,23.2,30.37,ENE,66,16.0,17.0,35,0.00,,,0.00,meteohub,2013-04-23 08:06:00,
2013-04-23 21:11:00,50.2,22.8,30.37,ENE,71,13.0,17.0,34,0.00,,,0.00,meteohub,2013-04-23 08:11:00,
2013-04-23 21:16:00,50.2,22.8,30.38,ENE,60,14.0,18.0,34,0.00,,,0.00,meteohub,2013-04-23 08:16:00,
2013-04-23 21:21:00,50.4,22.3,30.38,ENE,72,13.0,18.0,33,0.00,,,0.00,meteohub,2013-04-23 08:21:00,
2013-04-23 21:26:00,50.4,22.3,30.37,ENE,67,12.0,16.0,33,0.00,,,0.00,meteohub,2013-04-23 08:26:00,
2013-04-23 21:31:00,50.5,21.0,30.36,ENE,60,14.0,14.0,31,0.00,,,0.00,meteohub,2013-04-23 08:31:00,
2013-04-23 21:36:00,50.4,22.3,30.36,ENE,66,14.0,17.0,33,0.00,,,0.00,meteohub,2013-04-23 08:36:00,
2013-04-23 21:41:00,49.6,22.5,30.36,ENE,61,16.0,17.0,34,0.00,,,0.00,meteohub,2013-04-23 08:41:00,
2013-04-23 21:46:00,50.0,21.4,30.36,ENE,63,16.0,18.0,32,0.00,,,0.00,meteohub,2013-04-23 08:46:00,
2013-04-23 21:51:00,50.0,22.1,30.36,ENE,71,14.0,19.0,33,0.00,,,0.00,meteohub,2013-04-23 08:51:00,
2013-04-23 21:56:00,49.8,21.2,30.35,ENE,67,15.0,19.0,32,0.00,,,0.00,meteohub,2013-04-23 08:56:00,
2013-04-23 22:01:00,49.8,20.3,30.35,ENE,74,13.0,18.0,31,0.00,,,0.00,meteohub,2013-04-23 09:01:00,
2013-04-23 22:06:00,50.4,19.2,30.35,ENE,66,14.0,17.0,29,0.00,,,0.00,meteohub,2013-04-23 09:06:00,
2013-04-23 22:11:00,50.4,20.8,30.35,ENE,60,9.0,17.0,31,0.00,,,0.00,meteohub,2013-04-23 09:11:00,
2013-04-23 22:16:00,49.8,20.3,30.35,ENE,62,13.0,16.0,31,0.00,,,0.00,meteohub,2013-04-23 09:16:00,
2013-04-23 22:21:00,49.8,20.3,30.35,ENE,62,11.0,16.0,31,0.00,,,0.00,meteohub,2013-04-23 09:21:00,
2013-04-23 22:26:00,49.5,21.6,30.35,ENE,64,11.0,14.0,33,0.00,,,0.00,meteohub,2013-04-23 09:26:00,
2013-04-23 22:32:00,49.3,21.4,30.35,ENE,61,11.0,14.0,33,0.00,,,0.00,meteohub,2013-04-23 09:32:00,
2013-04-23 22:37:00,49.3,22.1,30.35,ENE,60,11.0,12.0,34,0.00,,,0.00,meteohub,2013-04-23 09:37:00,
2013-04-23 22:42:00,48.9,21.7,30.35,ENE,58,10.0,12.0,34,0.00,,,0.00,meteohub,2013-04-23 09:42:00,
2013-04-23 22:47:00,49.3,22.8,30.35,NE,52,9.0,12.0,35,0.00,,,0.00,meteohub,2013-04-23 09:47:00,
2013-04-23 22:52:00,47.8,23.5,30.34,NE,51,10.0,12.0,38,0.00,,,0.00,meteohub,2013-04-23 09:52:00,
2013-04-23 22:57:00,47.5,23.2,30.34,NE,46,10.0,12.0,38,0.00,,,0.00,meteohub,2013-04-23 09:57:00,
2013-04-23 23:02:00,47.5,23.2,30.34,NE,49,10.0,12.0,38,0.00,,,0.00,meteohub,2013-04-23 10:02:00,
2013-04-23 23:07:00,47.7,22.6,30.34,NE,56,10.0,12.0,37,0.00,,,0.00,meteohub,2013-04-23 10:07:00,
2013-04-23 23:12:00,47.8,22.8,30.33,NE,52,12.0,12.0,37,0.00,,,0.00,meteohub,2013-04-23 10:12:00,
2013-04-23 23:17:00,47.8,22.8,30.33,NE,52,12.0,13.0,37,0.00,,,0.00,meteohub,2013-04-23 10:17:00,
2013-04-23 23:22:00,47.8,21.6,30.33,NE,53,11.0,14.0,35,0.00,,,0.00,meteohub,2013-04-23 10:22:00,
2013-04-23 23:27:00,47.5,21.9,30.33,NE,55,12.0,14.0,36,0.00,,,0.00,meteohub,2013-04-23 10:27:00,
2013-04-23 23:32:00,47.8,21.6,30.33,NE,56,13.0,13.0,35,0.00,,,0.00,meteohub,2013-04-23 10:32:00,
2013-04-23 23:37:00,48.2,21.2,30.33,ENE,57,13.0,13.0,34,0.00,,,0.00,meteohub,2013-04-23 10:37:00,
2013-04-23 23:42:00,48.4,20.7,30.32,ENE,58,14.0,14.0,33,0.00,,,0.00,meteohub,2013-04-23 10:42:00,
2013-04-23 23:47:00,48.4,20.7,30.32,ENE,59,15.0,15.0,33,0.00,,,0.00,meteohub,2013-04-23 10:47:00,
2013-04-23 23:52:00,48.4,20.7,30.32,ENE,58,15.0,15.0,33,0.00,,,0.00,meteohub,2013-04-23 10:52:00,
2013-04-23 23:57:00,48.0,21.7,30.32,ENE,58,14.0,15.0,35,0.00,,,0.00,meteohub,2013-04-23 10:57:00,